Saint Martin Island, Sint Maarten

12:22 AM AST on December 11, 2016 (GMT -0400)
Princess Juliana International

Weather History for TNCM - January, 2013

Change the Weather History Date:

Friday, January 25, 2013

  Actual Average Record
Temperature  
Mean Temperature 78 °F -  
Max Temperature 84 °F 81 °F 86 °F (2001)
Min Temperature 73 °F 72 °F 69 °F (2007)
Cooling Degree Days 14    
Growing Degree Days 28 (Base 50)    
Moisture  
Dew Point 69 °F    
Average Humidity 76    
Maximum Humidity 94    
Minimum Humidity 53    
Precipitation  
Precipitation 0.08 in 0.06 in - ()
Sea Level Pressure  
Sea Level Pressure 30.05 in    
Wind  
Wind Speed 8 mph ()    
Max Wind Speed 16 mph    
Max Gust Speed -    
Visibility 6.5 miles    
Events Rain    
Averages and records for this station are not official NWS values.
T = Trace of Precipitation, MM = Missing Value Source: Averaged Metar Reports

Daily Weather History Graph

Daily Weather History Graph

Search for Another Location

Airport or City:

Trip Planner

Search our weather history database for the weather conditions in past years. The results will help you decide how hot, cold, wet, or windy it might be!

Date:

Astronomy

Jan. 25, 2013 Rise Set
Actual Time 6:46 AM AST 6:03 PM AST
Civil Twilight 6:23 AM AST 6:26 PM AST
Nautical Twilight 5:57 AM AST 6:52 PM AST
Astronomical Twilight 5:31 AM AST 7:18 PM AST
Moon 4:55 PM AST (1/25) 5:21 AM AST (1/25)
Length of Visible Light 12h 02m
Length of Day
11h 16m
Waxing Gibbous, 98% of the Moon is Illuminated
Jan 25
Waxing Gibbous
Jan 27
Full
Feb 3
Last Quarter
Feb 10
New
Feb 17
First Quarter

Hourly Weather History & Observations

Time (AST) Temp. Heat Index Dew Point Humidity Pressure Visibility Wind Dir Wind Speed Gust Speed Precip Events Conditions
12:00 AM 75.2 °F - 71.6 °F 89% 30.06 in 6.2 mi East 6.9 mph - N/A Rain Light Rain Showers
1:00 AM 75.2 °F - 69.8 °F 83% 30.06 in 6.2 mi ESE 6.9 mph - N/A   Mostly Cloudy
2:00 AM 76 °F - 69 °F 72% 30.06 in 25 mi SE 6.9 mph - -   Partly Cloudy
2:00 AM 75.2 °F - 68.0 °F 78% 30.04 in 6.2 mi ESE 6.9 mph - N/A   Scattered Clouds
3:00 AM 75.2 °F - 68.0 °F 78% 30.04 in 6.2 mi East 4.6 mph - N/A   Mostly Cloudy
4:00 AM 75.2 °F - 68.0 °F 78% 30.04 in 6.2 mi Variable 3.5 mph - N/A   Mostly Cloudy
5:00 AM 76 °F - 70 °F 77% 30.05 in 25 mi ENE 6.9 mph - -   Mostly Cloudy
5:00 AM 75.2 °F - 69.8 °F 83% 30.04 in 6.2 mi ENE 6.9 mph - N/A   Mostly Cloudy
6:00 AM 75.2 °F - 69.8 °F 83% 30.04 in 6.2 mi East 10.4 mph - N/A   Mostly Cloudy
7:00 AM 75.2 °F - 68.0 °F 78% 30.06 in 6.2 mi ENE 10.4 mph - N/A   Mostly Cloudy
8:00 AM 77 °F - 66 °F 62% 30.08 in 37 mi ENE 10.4 mph - -   Mostly Cloudy
8:00 AM 77.0 °F - 66.2 °F 69% 30.06 in 6.2 mi ENE 10.4 mph - N/A   Mostly Cloudy
9:00 AM 80.6 °F 82.3 °F 64.4 °F 58% 30.09 in 6.2 mi East 9.2 mph - N/A   Mostly Cloudy
10:00 AM 82.4 °F 85.4 °F 68.0 °F 62% 30.09 in 6.2 mi ENE 8.1 mph - N/A   Partly Cloudy
11:00 AM 83 °F - 69 °F 53% 30.09 in 37 mi ENE 9.2 mph - -   Scattered Clouds
11:00 AM 84.2 °F 87.3 °F 68.0 °F 58% 30.09 in 6.2 mi NE 9.2 mph - N/A   Partly Cloudy
12:00 PM 82.4 °F 86.3 °F 69.8 °F 66% 30.06 in 6.2 mi East 13.8 mph - N/A   Scattered Clouds
1:00 PM 82.4 °F 86.3 °F 69.8 °F 66% 30.04 in 6.2 mi East 11.5 mph - N/A   Partly Cloudy
2:00 PM 82.4 °F 86.3 °F 69.8 °F 66% 30.01 in 6.2 mi ENE 11.5 mph - N/A   Scattered Clouds
3:00 PM 80.6 °F 83.9 °F 69.8 °F 70% 30.01 in 6.2 mi East 10.4 mph - N/A   Mostly Cloudy
3:12 PM 78.8 °F - 69.8 °F 74% 30.01 in 3.1 mi East 13.8 mph - N/A Rain Rain Showers
3:32 PM 77.0 °F - 69.8 °F 78% 30.01 in 6.2 mi East 16.1 mph - N/A   Mostly Cloudy
4:00 PM 78.8 °F - 71.6 °F 78% 30.01 in 6.2 mi East 10.4 mph - N/A   Mostly Cloudy
5:00 PM 78 °F - 70 °F 69% 30.04 in 16 mi East 9.2 mph - - Rain Light Rain Showers
5:00 PM 77.0 °F - 69.8 °F 78% 30.04 in 6.2 mi East 9.2 mph - N/A   Mostly Cloudy
6:00 PM 77.0 °F - 68.0 °F 74% 30.04 in 6.2 mi ENE 12.7 mph - N/A   Mostly Cloudy
7:00 PM 75.2 °F - 69.8 °F 83% 30.04 in 6.2 mi ENE 11.5 mph - N/A Rain Light Rain
8:00 PM 74 °F - 70 °F 84% 30.08 in 9 mi East 13.8 mph - - Rain Light Rain
8:00 PM 73.4 °F - 69.8 °F 88% 30.06 in 6.2 mi East 13.8 mph - N/A Rain Light Rain
9:00 PM 73.4 °F - 71.6 °F 94% 30.06 in 6.2 mi East 8.1 mph - N/A Rain Light Rain
10:00 PM 75.2 °F - 71.6 °F 89% 30.06 in 6.2 mi ESE 15.0 mph - N/A   Mostly Cloudy
11:00 PM 73 °F - 70 °F 87% 30.09 in 6 mi SE 15.0 mph - - Rain Rain
11:00 PM 73.4 °F - 69.8 °F 88% 30.06 in 6.2 mi ESE 13.8 mph - N/A Rain Rain